Location: ?????????
(54.7630°N, 39.4991°E)
Time: 21:38:38
(UTC+00:00)

SL-4 R/B - Pass Details

Date: 14 April 2026
Orbit: 380 x 505 km, 51.6° (Epoch: 16 May)

Event Time Altitude Azimuth Distance (km) Brightness Sun altitude
Exits shadow 23:42:43 49° 175° (S) 654 2.0 -19.1°
Maximum altitude 23:42:48 49° 171° (S) 653 2.1 -19.1°
Drops below altitude 10° 23:46:31 10° 96° (E) 1,690 4.9 -18.8°
Sets 23:48:42 0° 91° (E) 2,555 6.0 -18.6°
